Time,TemperatureF,DewpointF,PressureIn,WindDirection,WindDirectionDegrees,WindSpeedMPH,WindSpeedGustMPH,Humidity,HourlyPrecipIn,Conditions,Clouds,dailyrainin,SoftwareType,DateUTC
2013-08-01 00:00:00,65.7,65.7,29.95,North,0,0.0,0.0,100,0.00,,,0.00,meteo_script,2013-08-01 04:00:00,
2013-08-01 00:05:00,65.6,65.6,29.95,North,0,0.0,0.0,100,0.00,,,0.00,meteo_script,2013-08-01 04:05:00,
2013-08-01 00:10:00,65.7,65.7,29.95,North,0,0.0,0.0,100,0.00,,,0.00,meteo_script,2013-08-01 04:10:00,
2013-08-01 00:20:00,65.4,65.4,29.95,North,0,0.0,0.0,100,0.00,,,0.00,meteo_script,2013-08-01 04:20:00,
2013-08-01 00:25:00,65.3,65.3,29.95,North,0,0.0,0.0,100,0.00,,,0.00,meteo_script,2013-08-01 04:25:00,
2013-08-01 00:30:00,65.2,65.2,29.95,North,0,0.0,0.0,100,0.00,,,0.00,meteo_script,2013-08-01 04:30:00,
2013-08-01 00:35:00,65.1,65.1,29.95,North,0,0.0,0.0,100,0.00,,,0.00,meteo_script,2013-08-01 04:35:00,
2013-08-01 00:45:00,64.9,64.9,29.95,North,0,0.0,0.0,100,0.00,,,0.00,meteo_script,2013-08-01 04:45:00,
2013-08-01 00:50:00,64.9,64.9,29.95,North,0,0.0,0.0,100,0.00,,,0.00,meteo_script,2013-08-01 04:50:00,
2013-08-01 00:55:00,64.8,64.8,29.95,North,0,0.0,0.0,100,0.00,,,0.00,meteo_script,2013-08-01 04:55:00,
2013-08-01 01:05:00,64.9,64.9,29.95,North,0,0.0,0.0,100,0.00,,,0.00,meteo_script,2013-08-01 05:05:00,
2013-08-01 01:10:00,64.9,64.9,29.95,North,0,0.0,0.0,100,0.00,,,0.00,meteo_script,2013-08-01 05:10:00,
2013-08-01 01:20:00,64.9,64.9,29.94,North,0,0.0,0.0,100,0.00,,,0.00,meteo_script,2013-08-01 05:20:00,
2013-08-01 01:25:00,64.9,64.9,29.94,North,0,0.0,0.0,100,0.00,,,0.00,meteo_script,2013-08-01 05:25:00,
2013-08-01 01:30:00,64.9,64.9,29.94,North,0,0.0,0.0,100,0.00,,,0.00,meteo_script,2013-08-01 05:30:00,
2013-08-01 01:40:00,64.7,64.7,29.94,North,0,0.0,0.0,100,0.00,,,0.00,meteo_script,2013-08-01 05:40:00,
2013-08-01 01:50:00,64.8,64.8,29.93,North,0,0.0,0.0,100,0.00,,,0.00,meteo_script,2013-08-01 05:50:00,
2013-08-01 02:00:00,64.5,64.5,29.93,North,0,0.0,0.0,100,0.00,,,0.00,meteo_script,2013-08-01 06:00:00,
2013-08-01 02:05:00,64.5,64.5,29.93,North,0,0.0,0.0,100,0.00,,,0.00,meteo_script,2013-08-01 06:05:00,
2013-08-01 02:15:00,64.5,64.5,29.93,North,0,0.0,0.0,100,0.00,,,0.00,meteo_script,2013-08-01 06:15:00,
2013-08-01 02:20:00,64.4,64.4,29.93,North,0,0.0,0.0,100,0.00,,,0.00,meteo_script,2013-08-01 06:20:00,
2013-08-01 02:25:00,64.4,64.4,29.92,North,0,0.0,0.0,100,0.00,,,0.00,meteo_script,2013-08-01 06:25:00,
2013-08-01 02:30:00,64.3,64.3,29.92,North,0,0.0,0.0,100,0.00,,,0.00,meteo_script,2013-08-01 06:30:00,
2013-08-01 02:40:00,63.7,63.7,29.92,North,0,0.0,0.0,100,0.00,,,0.00,meteo_script,2013-08-01 06:40:00,
2013-08-01 02:45:00,63.6,63.6,29.92,North,0,0.0,0.0,100,0.00,,,0.00,meteo_script,2013-08-01 06:45:00,
2013-08-01 02:55:00,63.5,63.5,29.92,North,0,0.0,0.0,100,0.00,,,0.00,meteo_script,2013-08-01 06:55:00,
2013-08-01 03:00:00,63.5,63.5,29.92,North,0,0.0,0.0,100,0.00,,,0.00,meteo_script,2013-08-01 07:00:00,
2013-08-01 03:05:00,63.4,63.4,29.91,North,0,0.0,0.0,100,0.00,,,0.00,meteo_script,2013-08-01 07:05:00,
2013-08-01 03:15:00,63.3,63.3,29.91,North,0,0.0,0.0,100,0.00,,,0.00,meteo_script,2013-08-01 07:15:00,
2013-08-01 03:20:00,63.2,63.2,29.91,North,0,0.0,0.0,100,0.00,,,0.00,meteo_script,2013-08-01 07:20:00,
2013-08-01 03:30:00,63.1,63.1,29.91,North,0,0.0,0.0,100,0.00,,,0.00,meteo_script,2013-08-01 07:30:00,
2013-08-01 03:40:00,62.9,62.9,29.91,North,0,0.0,0.0,100,0.00,,,0.00,meteo_script,2013-08-01 07:40:00,
2013-08-01 03:50:00,62.6,62.6,29.91,North,0,0.0,0.0,100,0.00,,,0.00,meteo_script,2013-08-01 07:50:00,
2013-08-01 03:55:00,62.5,62.5,29.91,North,0,0.0,0.0,100,0.00,,,0.00,meteo_script,2013-08-01 07:55:00,
2013-08-01 04:00:00,62.5,62.5,29.91,North,0,0.0,0.0,100,0.00,,,0.00,meteo_script,2013-08-01 08:00:00,
2013-08-01 04:06:00,62.4,62.4,29.91,North,0,0.0,0.0,100,0.00,,,0.00,meteo_script,2013-08-01 08:06:00,
2013-08-01 04:15:00,62.4,62.4,29.91,North,0,0.0,0.0,100,0.00,,,0.00,meteo_script,2013-08-01 08:15:00,
2013-08-01 04:25:00,62.3,62.3,29.91,North,0,0.0,0.0,100,0.00,,,0.00,meteo_script,2013-08-01 08:25:00,
2013-08-01 04:30:00,62.3,62.3,29.91,North,0,0.0,0.0,100,0.00,,,0.00,meteo_script,2013-08-01 08:30:00,
2013-08-01 04:35:00,62.2,62.2,29.91,North,0,0.0,0.0,100,0.00,,,0.00,meteo_script,2013-08-01 08:35:00,
2013-08-01 04:45:00,62.1,62.1,29.91,North,0,0.0,0.0,100,0.00,,,0.00,meteo_script,2013-08-01 08:45:00,
2013-08-01 04:50:00,61.9,61.9,29.90,North,0,0.0,0.0,100,0.00,,,0.00,meteo_script,2013-08-01 08:50:00,
2013-08-01 04:56:00,61.9,61.9,29.90,North,0,0.0,0.0,100,0.00,,,0.00,meteo_script,2013-08-01 08:56:00,
2013-08-01 05:05:00,61.7,61.7,29.91,North,0,0.0,0.0,100,0.00,,,0.00,meteo_script,2013-08-01 09:05:00,
2013-08-01 05:15:00,61.5,61.5,29.91,North,0,0.0,0.0,100,0.00,,,0.00,meteo_script,2013-08-01 09:15:00,
2013-08-01 05:20:00,61.5,61.5,29.91,North,0,0.0,0.0,100,0.00,,,0.00,meteo_script,2013-08-01 09:20:00,
2013-08-01 05:25:00,61.5,61.5,29.91,North,0,0.0,0.0,100,0.00,,,0.00,meteo_script,2013-08-01 09:25:00,
2013-08-01 05:35:00,61.4,61.4,29.90,North,0,0.0,0.0,100,0.00,,,0.00,meteo_script,2013-08-01 09:35:00,
2013-08-01 05:46:00,61.5,61.5,29.90,North,0,0.0,0.0,100,0.00,,,0.00,meteo_script,2013-08-01 09:46:00,
2013-08-01 05:55:00,61.4,61.4,29.90,North,0,0.0,0.0,100,0.00,,,0.00,meteo_script,2013-08-01 09:55:00,
2013-08-01 06:05:00,61.5,61.5,29.90,North,0,0.0,0.0,100,0.00,,,0.00,meteo_script,2013-08-01 10:05:00,
2013-08-01 06:15:00,61.4,61.4,29.91,North,0,0.0,0.0,100,0.00,,,0.00,meteo_script,2013-08-01 10:15:00,
2013-08-01 06:20:00,61.3,61.3,29.90,North,0,0.0,0.0,100,0.00,,,0.00,meteo_script,2013-08-01 10:20:00,
2013-08-01 06:31:00,61.2,61.2,29.90,North,0,0.0,0.0,100,0.00,,,0.00,meteo_script,2013-08-01 10:31:00,
2013-08-01 06:40:00,61.2,61.2,29.90,North,0,0.0,0.0,100,0.00,,,0.00,meteo_script,2013-08-01 10:40:00,
2013-08-01 06:51:00,61.3,61.3,29.90,North,0,0.0,0.0,100,0.00,,,0.00,meteo_script,2013-08-01 10:51:00,
2013-08-01 07:00:00,61.3,61.3,29.90,North,0,0.0,0.0,100,0.00,,,0.00,meteo_script,2013-08-01 11:00:00,
2013-08-01 07:10:00,61.4,61.4,29.90,North,0,0.0,0.0,100,0.00,,,0.00,meteo_script,2013-08-01 11:10:00,
2013-08-01 07:15:00,61.6,61.6,29.90,North,0,0.0,0.0,100,0.00,,,0.00,meteo_script,2013-08-01 11:15:00,
2013-08-01 07:21:00,61.8,61.8,29.90,North,0,0.0,0.0,100,0.00,,,0.00,meteo_script,2013-08-01 11:21:00,
2013-08-01 07:30:00,62.2,62.2,29.90,North,0,0.0,0.0,100,0.00,,,0.00,meteo_script,2013-08-01 11:30:00,
2013-08-01 07:35:00,62.3,62.3,29.91,North,0,0.0,0.0,100,0.00,,,0.00,meteo_script,2013-08-01 11:35:00,
2013-08-01 07:51:00,62.9,62.9,29.90,North,0,0.0,0.0,100,0.00,,,0.00,meteo_script,2013-08-01 11:51:00,
2013-08-01 08:00:00,63.3,63.3,29.90,North,0,0.0,0.0,100,0.00,,,0.00,meteo_script,2013-08-01 12:00:00,
2013-08-01 08:05:00,63.6,63.6,29.90,North,0,0.0,0.0,100,0.00,,,0.00,meteo_script,2013-08-01 12:05:00,
2013-08-01 08:10:00,63.9,63.9,29.90,North,0,0.0,0.0,100,0.00,,,0.00,meteo_script,2013-08-01 12:10:00,
2013-08-01 08:20:00,64.3,64.3,29.90,North,0,0.0,0.0,100,0.00,,,0.00,meteo_script,2013-08-01 12:20:00,
2013-08-01 08:35:00,65.2,65.2,29.90,North,0,0.0,0.0,100,0.00,,,0.00,meteo_script,2013-08-01 12:35:00,
2013-08-01 08:40:00,65.6,65.6,29.90,North,0,0.0,0.0,100,0.00,,,0.00,meteo_script,2013-08-01 12:40:00,
2013-08-01 08:45:00,65.8,65.8,29.90,North,0,0.0,0.0,100,0.00,,,0.00,meteo_script,2013-08-01 12:45:00,
2013-08-01 08:56:00,66.5,66.5,29.89,SSW,205,0.0,2.0,100,0.00,,,0.00,meteo_script,2013-08-01 12:56:00,
2013-08-01 09:05:00,67.3,67.3,29.89,North,0,0.0,1.0,100,0.00,,,0.00,meteo_script,2013-08-01 13:05:00,
2013-08-01 09:10:00,67.6,67.6,29.88,North,0,0.0,1.0,100,0.00,,,0.00,meteo_script,2013-08-01 13:10:00,
2013-08-01 09:20:00,68.2,68.2,29.88,North,0,0.0,0.0,100,0.00,,,0.00,meteo_script,2013-08-01 13:20:00,
2013-08-01 09:40:00,69.7,69.7,29.88,North,0,0.0,1.0,100,0.00,,,0.00,meteo_script,2013-08-01 13:40:00,
2013-08-01 09:51:00,70.5,70.5,29.88,North,0,0.0,1.0,100,0.00,,,0.00,meteo_script,2013-08-01 13:51:00,
2013-08-01 10:01:00,71.5,71.5,29.88,SSW,204,0.1,2.0,100,0.00,,,0.00,meteo_script,2013-08-01 14:01:00,
2013-08-01 10:10:00,72.1,71.8,29.87,SE,146,0.2,1.0,99,0.00,,,0.00,meteo_script,2013-08-01 14:10:00,
2013-08-01 10:20:00,72.7,72.1,29.87,SE,146,0.3,2.0,98,0.00,,,0.00,meteo_script,2013-08-01 14:20:00,
2013-08-01 10:30:00,74.7,73.1,29.87,WSW,241,0.3,2.0,94,0.00,,,0.00,meteo_script,2013-08-01 14:30:00,
2013-08-01 10:40:00,77.0,74.1,29.87,SW,229,0.3,3.0,90,0.00,,,0.00,meteo_script,2013-08-01 14:40:00,
2013-08-01 10:45:00,77.3,73.9,29.86,SW,229,0.3,2.0,89,0.00,,,0.00,meteo_script,2013-08-01 14:45:00,
2013-08-01 10:55:00,79.2,74.4,29.86,SSW,210,0.6,5.0,85,0.00,,,0.00,meteo_script,2013-08-01 14:55:00,
2013-08-01 11:01:00,80.0,75.0,29.86,SW,228,0.3,1.0,84,0.00,,,0.00,meteo_script,2013-08-01 15:01:00,
2013-08-01 11:10:00,79.9,74.7,29.86,SW,228,0.4,2.0,84,0.00,,,0.00,meteo_script,2013-08-01 15:10:00,
2013-08-01 11:15:00,80.6,74.9,29.86,SW,228,0.7,4.0,83,0.00,,,0.00,meteo_script,2013-08-01 15:15:00,
2013-08-01 11:20:00,81.3,75.3,29.85,SW,228,0.8,3.0,82,0.00,,,0.00,meteo_script,2013-08-01 15:20:00,
2013-08-01 11:30:00,82.7,75.8,29.85,SW,222,0.3,4.0,79,0.00,,,0.00,meteo_script,2013-08-01 15:30:00,
2013-08-01 11:35:00,82.5,75.3,29.84,SE,140,0.3,2.0,79,0.00,,,0.00,meteo_script,2013-08-01 15:35:00,
2013-08-01 11:40:00,81.5,74.9,29.85,SE,128,0.3,2.0,80,0.00,,,0.00,meteo_script,2013-08-01 15:40:00,
2013-08-01 11:51:00,82.2,74.9,29.84,SW,232,0.6,4.0,78,0.00,,,0.00,meteo_script,2013-08-01 15:51:00,
2013-08-01 12:01:00,83.0,75.4,29.84,WSW,254,0.9,3.0,78,0.00,,,0.00,meteo_script,2013-08-01 16:01:00,
2013-08-01 12:10:00,81.3,74.1,29.84,SSW,207,0.6,3.0,79,0.00,,,0.00,meteo_script,2013-08-01 16:10:00,
2013-08-01 12:15:00,81.3,74.9,29.83,SSW,209,0.4,2.0,81,0.00,,,0.00,meteo_script,2013-08-01 16:15:00,
2013-08-01 12:25:00,82.4,75.2,29.84,SW,233,1.1,3.0,78,0.00,,,0.00,meteo_script,2013-08-01 16:25:00,
2013-08-01 12:30:00,81.6,74.4,29.83,SW,233,0.7,3.0,78,0.00,,,0.00,meteo_script,2013-08-01 16:30:00,
2013-08-01 12:40:00,80.2,73.5,29.83,SSE,155,0.8,3.0,80,0.00,,,0.00,meteo_script,2013-08-01 16:40:00,
2013-08-01 12:46:00,79.5,73.3,29.83,SW,218,0.5,2.0,81,0.00,,,0.00,meteo_script,2013-08-01 16:46:00,
2013-08-01 12:55:00,79.3,73.3,29.83,SSE,162,0.6,4.0,82,0.00,,,0.00,meteo_script,2013-08-01 16:55:00,
2013-08-01 13:00:00,79.4,74.1,29.83,SSW,210,0.8,3.0,84,0.00,,,0.00,meteo_script,2013-08-01 17:00:00,
2013-08-01 13:05:00,80.3,74.2,29.83,SSW,205,0.6,6.0,82,0.00,,,0.00,meteo_script,2013-08-01 17:05:00,
2013-08-01 13:15:00,81.7,74.9,29.82,West,278,0.9,3.0,80,0.00,,,0.00,meteo_script,2013-08-01 17:15:00,
2013-08-01 13:20:00,83.1,74.8,29.82,SE,138,1.0,4.0,76,0.00,,,0.00,meteo_script,2013-08-01 17:20:00,
2013-08-01 13:35:00,81.6,73.3,29.82,SSE,167,1.5,5.0,76,0.00,,,0.00,meteo_script,2013-08-01 17:35:00,
2013-08-01 13:46:00,79.7,73.4,29.81,SW,225,1.2,4.0,80,0.00,,,0.00,meteo_script,2013-08-01 17:46:00,
2013-08-01 13:51:00,79.9,72.8,29.82,SE,144,1.2,5.0,79,0.00,,,0.00,meteo_script,2013-08-01 17:51:00,
2013-08-01 14:00:00,80.5,73.8,29.81,WSW,253,1.3,4.0,80,0.00,,,0.00,meteo_script,2013-08-01 18:00:00,
2013-08-01 14:06:00,80.2,73.3,29.82,SSE,165,1.4,4.0,79,0.00,,,0.00,meteo_script,2013-08-01 18:06:00,
2013-08-01 14:11:00,80.4,73.2,29.81,SSE,151,1.2,5.0,79,0.00,,,0.00,meteo_script,2013-08-01 18:11:00,
2013-08-01 14:20:00,81.1,73.8,29.81,SSW,201,1.6,3.0,78,0.00,,,0.00,meteo_script,2013-08-01 18:20:00,
2013-08-01 14:25:00,80.9,74.3,29.80,South,169,1.0,5.0,80,0.00,,,0.00,meteo_script,2013-08-01 18:25:00,
2013-08-01 14:35:00,79.9,72.8,29.80,SE,142,0.7,3.0,79,0.00,,,0.00,meteo_script,2013-08-01 18:35:00,
2013-08-01 14:40:00,79.1,72.6,29.80,SE,141,0.5,3.0,80,0.00,,,0.00,meteo_script,2013-08-01 18:40:00,
2013-08-01 14:50:00,77.9,72.3,29.80,SSW,213,0.7,3.0,83,0.00,,,0.00,meteo_script,2013-08-01 18:50:00,
2013-08-01 14:55:00,77.4,72.2,29.80,SE,136,0.7,4.0,84,0.00,,,0.00,meteo_script,2013-08-01 18:55:00,
2013-08-01 15:05:00,76.9,72.0,29.80,SE,134,0.3,3.0,85,0.00,,,0.00,meteo_script,2013-08-01 19:05:00,
2013-08-01 15:15:00,76.1,71.6,29.80,North,0,0.0,0.0,86,0.00,,,0.00,meteo_script,2013-08-01 19:15:00,
2013-08-01 15:21:00,76.0,71.8,29.80,North,0,0.0,0.0,87,0.00,,,0.00,meteo_script,2013-08-01 19:21:00,
2013-08-01 15:30:00,75.7,72.2,29.80,North,0,0.0,0.0,88,0.00,,,0.00,meteo_script,2013-08-01 19:30:00,
2013-08-01 15:35:00,75.8,72.6,29.80,North,0,0.0,0.0,90,0.00,,,0.00,meteo_script,2013-08-01 19:35:00,
2013-08-01 15:40:00,75.7,72.7,29.80,North,0,0.0,0.0,90,0.00,,,0.00,meteo_script,2013-08-01 19:40:00,
2013-08-01 15:50:00,75.6,72.4,29.80,South,183,0.0,2.0,90,0.00,,,0.00,meteo_script,2013-08-01 19:50:00,
2013-08-01 16:05:00,75.6,72.8,29.80,South,185,0.1,1.0,90,0.00,,,0.00,meteo_script,2013-08-01 20:05:00,
2013-08-01 16:16:00,75.5,72.6,29.81,South,185,0.1,1.0,91,0.00,,,0.00,meteo_script,2013-08-01 20:16:00,
2013-08-01 16:21:00,75.3,72.5,29.81,North,0,0.2,2.0,91,0.00,,,0.00,meteo_script,2013-08-01 20:21:00,
2013-08-01 16:26:00,75.2,73.1,29.81,South,186,0.4,3.0,93,0.00,,,0.00,meteo_script,2013-08-01 20:26:00,
2013-08-01 16:35:00,74.6,71.7,29.81,SW,219,1.3,9.0,90,0.00,,,0.00,meteo_script,2013-08-01 20:35:00,
2013-08-01 16:41:00,74.3,71.5,29.81,WSW,237,1.3,4.0,91,0.00,,,0.00,meteo_script,2013-08-01 20:41:00,
2013-08-01 16:50:00,73.1,71.4,29.81,WSW,238,1.0,4.0,94,0.00,,,0.00,meteo_script,2013-08-01 20:50:00,
2013-08-01 16:55:00,72.4,71.2,29.81,SW,236,1.2,7.0,96,0.00,,,0.00,meteo_script,2013-08-01 20:55:00,
2013-08-01 17:01:00,71.7,70.8,29.81,SW,216,1.4,3.0,97,0.00,,,0.00,meteo_script,2013-08-01 21:01:00,
2013-08-01 17:10:00,70.8,70.8,29.81,SSW,212,0.8,5.0,100,0.00,,,0.00,meteo_script,2013-08-01 21:10:00,
2013-08-01 17:20:00,70.3,70.3,29.81,WSW,244,0.5,2.0,100,0.00,,,0.00,meteo_script,2013-08-01 21:20:00,
2013-08-01 17:25:00,70.1,70.1,29.81,WSW,243,0.3,2.0,100,0.00,,,0.00,meteo_script,2013-08-01 21:25:00,
2013-08-01 17:35:00,69.8,69.8,29.81,WSW,243,0.1,1.0,100,0.00,,,0.00,meteo_script,2013-08-01 21:35:00,
2013-08-01 17:40:00,69.5,69.5,29.81,WSW,243,0.1,2.0,100,0.00,,,0.00,meteo_script,2013-08-01 21:40:00,
2013-08-01 17:46:00,69.2,69.2,29.82,North,0,0.1,0.0,100,0.00,,,0.00,meteo_script,2013-08-01 21:46:00,
2013-08-01 17:51:00,68.9,68.9,29.82,North,0,0.0,1.0,100,0.00,,,0.00,meteo_script,2013-08-01 21:51:00,
2013-08-01 18:00:00,68.7,68.7,29.81,North,0,0.0,0.0,100,0.00,,,0.00,meteo_script,2013-08-01 22:00:00,
2013-08-01 18:05:00,68.5,68.5,29.81,North,0,0.0,0.0,100,0.00,,,0.00,meteo_script,2013-08-01 22:05:00,
2013-08-01 18:10:00,68.4,68.4,29.81,North,0,0.0,0.0,100,0.00,,,0.00,meteo_script,2013-08-01 22:10:00,
2013-08-01 18:21:00,68.2,68.2,29.81,North,0,0.0,0.0,100,0.00,,,0.00,meteo_script,2013-08-01 22:21:00,
2013-08-01 18:26:00,68.2,68.2,29.81,North,0,0.0,0.0,100,0.00,,,0.00,meteo_script,2013-08-01 22:26:00,
2013-08-01 18:35:00,68.2,68.2,29.80,North,0,0.0,1.0,100,0.00,,,0.00,meteo_script,2013-08-01 22:35:00,
2013-08-01 18:41:00,68.3,68.3,29.81,WSW,244,0.0,1.0,100,0.00,,,0.00,meteo_script,2013-08-01 22:41:00,
2013-08-01 18:50:00,68.4,68.4,29.81,WSW,243,0.0,1.0,100,0.00,,,0.00,meteo_script,2013-08-01 22:50:00,
2013-08-01 19:00:00,68.4,68.4,29.81,North,0,0.0,1.0,100,0.00,,,0.00,meteo_script,2013-08-01 23:00:00,
2013-08-01 19:06:00,68.4,68.4,29.81,North,0,0.0,0.0,100,0.00,,,0.00,meteo_script,2013-08-01 23:06:00,
2013-08-01 19:15:00,68.3,68.3,29.81,North,0,0.0,0.0,100,0.00,,,0.00,meteo_script,2013-08-01 23:15:00,
2013-08-01 19:25:00,68.2,68.2,29.81,North,0,0.0,0.0,100,0.00,,,0.00,meteo_script,2013-08-01 23:25:00,
2013-08-01 19:30:00,68.2,68.2,29.81,North,0,0.0,0.0,100,0.00,,,0.00,meteo_script,2013-08-01 23:30:00,
2013-08-01 19:36:00,68.2,68.2,29.81,North,0,0.0,0.0,100,0.00,,,0.00,meteo_script,2013-08-01 23:36:00,
2013-08-01 19:45:00,68.1,68.1,29.81,North,0,0.0,0.0,100,0.00,,,0.00,meteo_script,2013-08-01 23:45:00,
2013-08-01 19:50:00,68.1,68.1,29.81,North,0,0.0,0.0,100,0.00,,,0.00,meteo_script,2013-08-01 23:50:00,
2013-08-01 20:01:00,68.0,68.0,29.81,North,0,0.0,0.0,100,0.00,,,0.00,meteo_script,2013-08-02 00:01:00,
2013-08-01 20:10:00,68.0,68.0,29.81,North,0,0.0,1.0,100,0.00,,,0.00,meteo_script,2013-08-02 00:10:00,
2013-08-01 20:20:00,67.9,67.9,29.81,North,0,0.0,0.0,100,0.00,,,0.00,meteo_script,2013-08-02 00:20:00,
2013-08-01 20:26:00,67.9,67.9,29.81,North,0,0.0,0.0,100,0.00,,,0.00,meteo_script,2013-08-02 00:26:00,
2013-08-01 20:35:00,67.8,67.8,29.81,North,0,0.0,0.0,100,0.00,,,0.00,meteo_script,2013-08-02 00:35:00,
2013-08-01 20:40:00,67.8,67.8,29.81,North,0,0.0,0.0,100,0.00,,,0.00,meteo_script,2013-08-02 00:40:00,
2013-08-01 20:50:00,67.7,67.7,29.81,North,0,0.0,0.0,100,0.00,,,0.00,meteo_script,2013-08-02 00:50:00,
2013-08-01 20:55:00,67.4,67.4,29.81,North,0,0.0,0.0,100,0.00,,,0.00,meteo_script,2013-08-02 00:55:00,
2013-08-01 21:00:00,67.2,67.2,29.81,North,0,0.0,0.0,100,0.00,,,0.00,meteo_script,2013-08-02 01:00:00,
2013-08-01 21:11:00,66.9,66.9,29.81,North,0,0.0,1.0,100,0.00,,,0.00,meteo_script,2013-08-02 01:11:00,
2013-08-01 21:20:00,66.7,66.7,29.80,North,0,0.0,1.0,100,0.00,,,0.00,meteo_script,2013-08-02 01:20:00,
2013-08-01 21:25:00,66.6,66.6,29.80,North,0,0.0,0.0,100,0.00,,,0.00,meteo_script,2013-08-02 01:25:00,
2013-08-01 21:30:00,66.7,66.7,29.81,North,0,0.0,0.0,100,0.00,,,0.00,meteo_script,2013-08-02 01:30:00,
2013-08-01 21:35:00,66.6,66.6,29.81,North,0,0.0,0.0,100,0.00,,,0.00,meteo_script,2013-08-02 01:35:00,
2013-08-01 21:41:00,66.4,66.4,29.81,North,0,0.0,0.0,100,0.00,,,0.00,meteo_script,2013-08-02 01:41:00,
2013-08-01 21:50:00,66.0,66.0,29.81,North,0,0.0,1.0,100,0.01,,,0.01,meteo_script,2013-08-02 01:50:00,
2013-08-01 21:55:00,65.8,65.8,29.81,North,0,0.0,0.0,100,0.01,,,0.01,meteo_script,2013-08-02 01:55:00,
2013-08-01 22:05:00,65.5,65.5,29.80,North,0,0.0,0.0,100,0.02,,,0.02,meteo_script,2013-08-02 02:05:00,
2013-08-01 22:10:00,65.4,65.4,29.80,North,0,0.0,0.0,100,0.02,,,0.02,meteo_script,2013-08-02 02:10:00,
2013-08-01 22:20:00,65.0,65.0,29.80,North,0,0.0,0.0,100,0.03,,,0.03,meteo_script,2013-08-02 02:20:00,
2013-08-01 22:25:00,65.0,65.0,29.80,North,0,0.0,0.0,100,0.03,,,0.03,meteo_script,2013-08-02 02:25:00,
2013-08-01 22:30:00,64.9,64.9,29.79,North,0,0.0,0.0,100,0.03,,,0.03,meteo_script,2013-08-02 02:30:00,
2013-08-01 22:40:00,65.0,65.0,29.79,North,0,0.0,1.0,100,0.04,,,0.04,meteo_script,2013-08-02 02:40:00,
2013-08-01 22:45:00,65.1,65.1,29.79,North,0,0.0,0.0,100,0.03,,,0.04,meteo_script,2013-08-02 02:45:00,
2013-08-01 22:55:00,65.1,65.1,29.79,North,0,0.0,0.0,100,0.04,,,0.05,meteo_script,2013-08-02 02:55:00,
2013-08-01 23:00:00,65.2,65.2,29.78,North,0,0.0,0.0,100,0.04,,,0.05,meteo_script,2013-08-02 03:00:00,
2013-08-01 23:05:00,65.1,65.1,29.78,North,0,0.0,0.0,100,0.03,,,0.05,meteo_script,2013-08-02 03:05:00,
2013-08-01 23:15:00,65.1,65.1,29.78,North,0,0.0,0.0,100,0.03,,,0.05,meteo_script,2013-08-02 03:15:00,
2013-08-01 23:25:00,65.1,65.1,29.78,North,0,0.0,0.0,100,0.02,,,0.05,meteo_script,2013-08-02 03:25:00,
2013-08-01 23:31:00,65.1,65.1,29.78,North,0,0.0,0.0,100,0.02,,,0.05,meteo_script,2013-08-02 03:31:00,
2013-08-01 23:40:00,65.1,65.1,29.78,North,0,0.0,0.0,100,0.02,,,0.06,meteo_script,2013-08-02 03:40:00,
2013-08-01 23:46:00,65.1,65.1,29.77,North,0,0.0,0.0,100,0.02,,,0.06,meteo_script,2013-08-02 03:46:00,
2013-08-01 23:55:00,65.0,65.0,29.77,North,0,0.0,0.0,100,0.01,,,0.06,meteo_script,2013-08-02 03:55:00,